Location: Arapaho Elementary School
(32.9607°N, 96.7625°W)
Time: 13:49:24
(UTC+00:00)

Cosmos 1500 Rocket - Pass Details

Date: 03 July 2022
Orbit: 601 x 632 km, 82.5° (Epoch: 18 August)

Event Time Altitude Azimuth Distance (km) Brightness Sun altitude
Exits shadow 09:31:02 40° 188° (S) 922 4.0 -19.6°
Maximum altitude 09:32:36 87° 275° (W) 631 3.5 -19.3°
Drops below altitude 10° 09:37:04 10° 6° (N) 2,011 6.9 -18.7°
Sets 09:39:19 0° 6° (N) 2,925 7.8 -18.4°
